Date String (YYYY-MM-DD hh:mm:ss) UTC,Instrument flags,Ambient pressure (hPa),Sample flow (lpm),Bypass flow (lpm),Sample temperature (°C),Ambient temperature (°C),ASC tube jacket temperature (°C),LED temperature (°C),Box temperature (°C),Sample RH (%),Span deviation,Mass concentration (μg/m³),Mass concentration (μg/m³),Mass concentration (μg/m³)
DateTimeUTC,F1_M11,P_M11,Q1_M11,Q2_M11,T1_M11,T2_M11,T3_M11,T4_M11,T5_M11,U1_M11,ZSPAN_M11,X0_M11,X2_M11,X1_M11
2022-08-29 13:00:00,,0829.0,4.99,0.00,30.2,28.2,00.0,39.1,31.9,19.1,0000.0,0010.99,0005.26,0004.37
2022-08-29 13:01:00,,0829.0,4.99,0.00,30.2,28.3,00.0,39.1,31.9,19.1,0000.0,0011.36,0005.25,0004.34
2022-08-29 13:02:00,,0829.0,5.01,0.00,30.2,28.5,00.0,39.1,31.9,19.1,0000.0,0011.70,0005.20,0004.31
2022-08-29 13:03:00,,0829.2,4.99,0.00,30.2,28.6,00.0,39.1,31.9,19.0,0000.0,0011.77,0005.15,0004.29
2022-08-29 13:04:00,,0829.0,5.00,0.00,30.2,28.6,00.0,39.1,31.9,18.9,0000.0,0011.77,0005.08,0004.29
2022-08-29 13:05:00,,0829.0,5.01,0.00,30.2,28.7,00.0,39.0,31.9,18.9,0000.0,0011.67,0005.04,0004.28
2022-08-29 13:06:00,,0828.8,5.00,0.00,30.2,28.7,00.0,39.0,31.9,18.9,0000.0,0011.16,0005.01,0004.29
2022-08-29 13:07:00,,0828.7,4.99,0.00,30.2,28.8,00.0,39.0,31.9,18.9,0000.0,0011.59,0004.99,0004.29
2022-08-29 13:08:00,,0829.1,5.00,0.00,30.2,28.8,00.0,39.0,32.0,18.8,0000.0,0011.54,0004.98,0004.30
2022-08-29 13:09:00,,0828.9,5.00,0.00,30.2,28.9,00.0,39.0,32.0,18.8,0000.0,0010.86,0004.97,0004.30
2022-08-29 13:10:00,,0828.6,5.00,0.00,30.2,28.9,00.0,39.0,32.0,18.8,0000.0,0010.72,0004.95,0004.30
2022-08-29 13:11:00,,0828.8,5.00,0.00,30.2,28.9,00.0,39.0,32.0,18.7,0000.0,0010.43,0004.93,0004.30
2022-08-29 13:12:00,,0828.7,5.00,0.00,30.2,28.9,00.0,39.0,32.0,18.7,0000.0,0010.13,0004.91,0004.31
2022-08-29 13:13:00,,0828.8,5.00,0.00,30.2,28.9,00.0,39.0,32.0,18.7,0000.0,0009.94,0004.94,0004.32
2022-08-29 13:14:00,,0828.6,5.00,0.00,30.2,29.0,00.0,39.0,32.0,18.6,0000.0,0010.57,0004.95,0004.33
2022-08-29 13:15:00,,0828.6,5.00,0.00,30.2,29.0,00.0,39.1,32.0,18.7,0000.0,0011.25,0004.97,0004.33
2022-08-29 13:16:00,,0828.9,5.01,0.00,30.2,29.0,00.0,39.1,32.0,18.7,0000.0,0011.30,0004.99,0004.33
2022-08-29 13:17:00,,0829.2,5.00,0.00,30.3,29.0,00.0,39.1,32.1,18.6,0000.0,0011.77,0005.00,0004.30
2022-08-29 13:18:00,,0829.2,5.00,0.00,30.3,29.0,00.0,39.1,32.1,18.7,0000.0,0011.53,0004.93,0004.27
2022-08-29 13:19:00,,0829.3,5.00,0.00,30.3,29.1,00.0,39.1,32.1,18.6,0000.0,0012.09,0004.94,0004.26
2022-08-29 13:20:00,,0829.1,5.00,0.00,30.3,29.1,00.0,39.1,32.1,18.5,0000.0,0012.29,0004.96,0004.25
2022-08-29 13:21:00,,0828.8,5.00,0.00,30.3,29.1,00.0,39.1,32.1,18.5,0000.0,0012.29,0004.95,0004.23
2022-08-29 13:22:00,,0829.0,5.00,0.00,30.3,29.1,00.0,39.1,32.1,18.5,0000.0,0012.48,0004.94,0004.22
2022-08-29 13:23:00,,0828.9,5.00,0.00,30.3,29.1,00.0,39.1,32.1,18.5,0000.0,0012.31,0004.92,0004.21
2022-08-29 13:24:00,,0829.0,5.00,0.00,30.3,29.1,00.0,39.1,32.1,18.6,0000.0,0011.96,0004.90,0004.20
2022-08-29 13:25:00,,0829.0,5.00,0.00,30.4,29.2,00.0,39.1,32.2,18.6,0000.0,0010.89,0004.88,0004.20
2022-08-29 13:26:00,,0828.7,5.00,0.00,30.4,29.2,00.0,39.2,32.2,18.7,0000.0,0010.70,0004.88,0004.21
2022-08-29 13:27:00,,0828.7,5.00,0.00,30.4,29.2,00.0,39.2,32.2,18.8,0000.0,0010.81,0004.87,0004.20
2022-08-29 13:28:00,,0828.7,5.00,0.00,30.4,29.2,00.0,39.2,32.2,18.9,0000.0,0011.37,0004.95,0004.22
2022-08-29 13:29:00,,0828.7,5.00,0.00,30.4,29.2,00.0,39.2,32.2,18.8,0000.0,0011.72,0005.13,0004.26
2022-08-29 13:30:00,,0829.1,5.00,0.00,30.4,29.2,00.0,39.2,32.2,18.9,0000.0,0012.31,0005.25,0004.28
2022-08-29 13:31:00,,0829.3,5.00,0.00,30.4,29.3,00.0,39.2,32.2,18.8,0000.0,0013.27,0005.34,0004.30
2022-08-29 13:32:00,,0829.3,5.01,0.00,30.4,29.3,00.0,39.2,32.2,18.8,0000.0,0013.86,0005.47,0004.33
2022-08-29 13:33:00,,0829.3,5.00,0.00,30.4,29.3,00.0,39.2,32.2,18.7,0000.0,0013.89,0005.53,0004.35
2022-08-29 13:34:00,,0829.4,5.00,0.00,30.4,29.3,00.0,39.2,32.3,18.9,0000.0,0014.61,0005.61,0004.38
2022-08-29 13:35:00,,0829.2,5.00,0.00,30.5,29.3,00.0,39.2,32.3,19.0,0000.0,0015.32,0005.72,0004.40
2022-08-29 13:36:00,,0828.8,5.00,0.00,30.5,29.4,00.0,39.3,32.3,19.0,0000.0,0015.94,0005.72,0004.40
2022-08-29 13:37:00,,0828.8,5.01,0.00,30.5,29.4,00.0,39.3,32.3,18.9,0000.0,0015.89,0005.74,0004.39
2022-08-29 13:38:00,,0828.8,5.00,0.00,30.5,29.4,00.0,39.3,32.3,19.0,0000.0,0016.02,0005.74,0004.38
2022-08-29 13:39:00,,0828.8,5.00,0.00,30.5,29.4,00.0,39.3,32.3,19.1,0000.0,0016.59,0005.70,0004.36
2022-08-29 13:40:00,,0828.9,5.00,0.00,30.5,28.5,00.0,39.3,32.3,19.5,0000.0,0016.00,0005.58,0004.34
2022-08-29 13:41:00,,0828.9,4.99,0.00,30.5,27.2,00.0,39.2,32.1,19.5,0000.0,0015.78,0005.46,0004.32
2022-08-29 13:42:00,,0828.9,5.01,0.00,30.4,27.0,00.0,39.2,32.1,19.4,0000.0,0014.86,0005.34,0004.30
2022-08-29 13:43:00,,0828.9,4.99,0.00,30.3,27.2,00.0,39.1,31.9,19.6,0000.0,0014.00,0005.18,0004.27
2022-08-29 13:44:00,,0828.9,5.00,0.00,30.3,27.5,00.0,39.1,31.9,19.7,0000.0,0013.87,0005.11,0004.25
2022-08-29 13:45:00,,0828.9,5.00,0.00,30.2,27.8,00.0,39.1,31.8,19.8,0000.0,0013.50,0005.05,0004.22
2022-08-29 13:46:00,,0828.9,4.99,0.00,30.2,28.1,00.0,39.0,31.9,20.0,0000.0,0012.55,0004.92,0004.19
2022-08-29 13:47:00,,0828.9,5.01,0.00,30.2,28.2,00.0,39.0,31.9,20.1,0000.0,0012.03,0004.91,0004.18
2022-08-29 13:48:00,,0828.9,4.99,0.00,30.2,28.4,00.0,39.0,31.9,20.1,0000.0,0012.10,0004.89,0004.16
2022-08-29 13:49:00,,0829.0,5.00,0.00,30.1,28.5,00.0,39.0,31.9,20.2,0000.0,0012.09,0004.91,0004.16
2022-08-29 13:50:00,,0828.9,5.00,0.00,30.2,28.6,00.0,39.0,31.9,20.5,0000.0,0011.02,0004.94,0004.16
2022-08-29 13:51:00,,0829.0,5.02,0.00,30.2,28.7,00.0,39.0,31.9,20.3,0000.0,0011.43,0004.99,0004.16
2022-08-29 13:52:00,,0829.0,5.00,0.00,30.2,28.8,00.0,39.0,32.0,20.0,0000.0,0010.81,0005.01,0004.15
2022-08-29 13:53:00,,0829.1,4.99,0.00,30.2,28.9,00.0,39.0,32.0,20.2,0000.0,0010.52,0005.02,0004.14
2022-08-29 13:54:00,,0829.1,5.00,0.00,30.2,28.9,00.0,39.0,32.0,20.3,0000.0,0010.90,0005.06,0004.13
2022-08-29 13:55:00,,0829.1,5.00,0.00,30.2,29.0,00.0,39.0,32.0,20.1,0000.0,0011.21,0005.09,0004.14
2022-08-29 13:56:00,,0829.1,5.01,0.00,30.2,29.0,00.0,39.0,32.0,20.4,0000.0,0011.28,0005.09,0004.13
2022-08-29 13:57:00,,0829.0,5.01,0.00,30.2,29.1,00.0,39.0,32.1,20.4,0000.0,0011.77,0005.11,0004.14
2022-08-29 13:58:00,,0829.1,5.00,0.00,30.3,29.1,00.0,39.0,32.1,21.1,0000.0,0011.93,0005.13,0004.14
2022-08-29 13:59:00,,0829.2,5.00,0.00,30.3,29.1,00.0,39.0,32.1,21.9,0000.0,0011.80,0005.12,0004.15
